Weather History for YBBN - April, 2013

Change the Weather History Date:

Thursday, April 18, 2013

  Actual Average Record
Temperature  
Mean Temperature 74 °F -  
Max Temperature 84 °F 76 °F 86 °F (2002)
Min Temperature 64 °F 59 °F 55 °F (2003)
Cooling Degree Days 9    
Growing Degree Days 24 (Base 50)    
Moisture  
Dew Point 66 °F    
Average Humidity 83    
Maximum Humidity 100    
Minimum Humidity 42    
Precipitation  
Precipitation 0.00 in 0.13 in - ()
Sea Level Pressure  
Sea Level Pressure 29.91 in    
Wind  
Wind Speed 5 mph ()    
Max Wind Speed 14 mph    
Max Gust Speed -    
Visibility 7.6 miles    
Events Fog    
Averages and records for this station are not official NWS values.
T = Trace of Precipitation, MM = Missing Value Source: Averaged Metar Reports

Daily Weather History Graph

Daily Weather History Graph

Search for Another Location

Airport or City:

Trip Planner

Search our weather history database for the weather conditions in past years. The results will help you decide how hot, cold, wet, or windy it might be!

Date:

Astronomy

Apr. 18, 2013 Rise Set
Actual Time 6:05 AM AEST 5:27 PM AEST
Civil Twilight 5:42 AM AEST 5:51 PM AEST
Nautical Twilight 5:14 AM AEST 6:18 PM AEST
Astronomical Twilight 4:47 AM AEST 6:45 PM AEST
Moon 12:15 PM AEST (4/18) 11:27 PM AEST (4/18)
Length of Visible Light 12h 09m
Length of Day
11h 22m
Waxing Crescent, 46% of the Moon is Illuminated
Apr 18
Waxing Crescent
Apr 18
First Quarter
Apr 26
Full
May 2
Last Quarter
May 10
New

Hourly Weather History & Observations

Time (AEST) Temp. Heat Index Dew Point Humidity Pressure Visibility Wind Dir Wind Speed Gust Speed Precip Events Conditions
12:00 AM 67 °F - 65 °F 92% 29.96 in 9 mi WNW 3.5 mph - -   Partly Cloudy
12:00 AM 66.2 °F - 66.2 °F 100% 29.95 in - WNW 3.5 mph - N/A   Clear
12:30 AM 66.2 °F - 66.2 °F 100% 29.95 in - NW 4.6 mph - N/A   Clear
1:00 AM 66.2 °F - 66.2 °F 100% 29.95 in 6.2 mi NW 3.5 mph - N/A   Mostly Cloudy
1:30 AM 66.2 °F - 66.2 °F 100% 29.95 in 6.2 mi Calm Calm - N/A   Mostly Cloudy
2:00 AM 66.2 °F - 66.2 °F 100% 29.92 in 6.2 mi Calm Calm - N/A   Mostly Cloudy
2:30 AM 64.4 °F - 64.4 °F 100% 29.92 in 6.2 mi Calm Calm - N/A   Partly Cloudy
3:00 AM 65 °F - 65 °F 99% 29.93 in 7 mi West 5.8 mph - -   Partly Cloudy
3:00 AM 66.2 °F - 64.4 °F 94% 29.92 in 6.2 mi West 5.8 mph - N/A   Partly Cloudy
3:30 AM 64.4 °F - 64.4 °F 100% 29.92 in 6.2 mi SSW 5.8 mph - N/A   Partly Cloudy
3:50 AM 64.4 °F - 64.4 °F 100% 29.92 in 6.2 mi SSW 3.5 mph - N/A Fog Shallow Fog
4:00 AM 64 °F - 64 °F 99% 29.93 in - SSW 1.2 mph - -  
4:00 AM 64.4 °F - 64.4 °F 100% 29.92 in 6.2 mi SSW 1.2 mph - N/A Fog Shallow Fog
4:28 AM 64.4 °F - 62.6 °F 94% 29.92 in 6.2 mi South 4.6 mph - N/A Fog Shallow Fog
4:30 AM 64.4 °F - 62.6 °F 94% 29.92 in 6.2 mi South 4.6 mph - N/A Fog Shallow Fog
5:00 AM 66.2 °F - 64.4 °F 94% 29.92 in 6.2 mi South 5.8 mph - N/A Fog Shallow Fog
5:30 AM 64.4 °F - 64.4 °F 100% 29.95 in 6.2 mi SSW 6.9 mph - N/A   Mostly Cloudy
6:00 AM 64.4 °F - 62.6 °F 94% 29.95 in 6.2 mi SSW 6.9 mph - N/A   Mostly Cloudy
6:30 AM 64.4 °F - 64.4 °F 100% 29.95 in 6.2 mi SSW 4.6 mph - N/A   Mostly Cloudy
7:00 AM 65 °F - 64 °F 96% 29.97 in - SSW 2.3 mph - -  
7:00 AM 66.2 °F - 64.4 °F 94% 29.95 in 6.2 mi SSW 2.3 mph - N/A   Mostly Cloudy
7:30 AM 66.2 °F - 64.4 °F 94% 29.95 in - Calm Calm - N/A   Clear
8:00 AM 68.0 °F - 66.2 °F 94% 29.95 in - West 3.5 mph - N/A   Clear
8:30 AM 69.8 °F - 64.4 °F 83% 29.98 in - WNW 3.5 mph - N/A   Clear
9:00 AM 72 °F - 65 °F 72% 29.98 in 12 mi NW 6.9 mph - -   Partly Cloudy
9:00 AM 71.6 °F - 64.4 °F 78% 29.98 in 6.2 mi NW 6.9 mph - N/A   Partly Cloudy
9:30 AM 73.4 °F - 66.2 °F 78% 29.95 in 6.2 mi North 8.1 mph - N/A   Partly Cloudy
10:00 AM 75 °F - 67 °F 68% 29.97 in - North 8.1 mph - -  
10:00 AM 75.2 °F - 66.2 °F 73% 29.95 in 6.2 mi North 8.1 mph - N/A   Partly Cloudy
10:30 AM 77.0 °F - 68.0 °F 74% 29.95 in 6.2 mi North 8.1 mph - N/A   Partly Cloudy
11:00 AM 78.8 °F - 66.2 °F 65% 29.92 in 6.2 mi North 6.9 mph - N/A   Partly Cloudy
11:30 AM 80.6 °F 82.7 °F 66.2 °F 61% 29.92 in 6.2 mi NW 10.4 mph - N/A   Partly Cloudy
12:00 PM 81 °F - 67 °F 53% 29.91 in 19 mi NW 10.4 mph - -   Partly Cloudy
12:00 PM 80.6 °F 82.7 °F 66.2 °F 61% 29.89 in 6.2 mi NW 10.4 mph - N/A   Partly Cloudy
12:30 PM 82.4 °F 84.6 °F 66.2 °F 58% 29.89 in 6.2 mi North 12.7 mph - N/A   Partly Cloudy
1:00 PM 82 °F - 64 °F 45% 29.88 in - NNW 10.4 mph - -  
1:00 PM 82.4 °F 83.9 °F 64.4 °F 54% 29.86 in 6.2 mi NNW 10.4 mph - N/A   Partly Cloudy
1:30 PM 84.2 °F 83.8 °F 59.0 °F 42% 29.86 in 6.2 mi NNW 12.7 mph - N/A   Partly Cloudy
2:00 PM 82.4 °F 82.9 °F 60.8 °F 48% 29.86 in 6.2 mi WNW 12.7 mph - N/A   Partly Cloudy
2:30 PM 82.4 °F 83.4 °F 62.6 °F 51% 29.83 in 6.2 mi North 10.4 mph - N/A   Scattered Clouds
3:00 PM 77 °F - 69 °F 71% 29.85 in 19 mi NNE 12.7 mph - -   Partly Cloudy
3:00 PM 77.0 °F - 69.8 °F 78% 29.83 in 6.2 mi NNE 12.7 mph - N/A   Mostly Cloudy
3:30 PM 77.0 °F - 71.6 °F 83% 29.83 in 6.2 mi NNE 12.7 mph - N/A   Scattered Clouds
4:00 PM 75 °F - 71 °F 82% 29.85 in - NNE 11.5 mph - -  
4:00 PM 75.2 °F - 69.8 °F 83% 29.83 in 6.2 mi NNE 11.5 mph - N/A   Scattered Clouds
4:30 PM 77.0 °F - 69.8 °F 78% 29.83 in 6.2 mi NNE 13.8 mph - N/A   Partly Cloudy
5:00 PM 75.2 °F - 69.8 °F 83% 29.86 in 6.2 mi North 10.4 mph - N/A   Partly Cloudy
5:30 PM 73.4 °F - 69.8 °F 88% 29.86 in 6.2 mi North 13.8 mph - N/A   Partly Cloudy
6:00 PM 73 °F - 68 °F 78% 29.88 in 16 mi North 10.4 mph - -   Smoke
6:00 PM 73.4 °F - 68.0 °F 83% 29.86 in 6.2 mi North 10.4 mph - N/A   Partly Cloudy
6:30 PM 73.4 °F - 68.0 °F 83% 29.89 in 6.2 mi North 10.4 mph - N/A   Partly Cloudy
7:00 PM 73 °F - 68 °F 78% 29.90 in - North 9.2 mph - -  
7:00 PM 73.4 °F - 68.0 °F 83% 29.89 in - North 9.2 mph - N/A   Clear
7:30 PM 71.6 °F - 68.0 °F 88% 29.89 in - NNW 8.1 mph - N/A   Clear
8:00 PM 73.4 °F - 68.0 °F 83% 29.92 in - NNW 9.2 mph - N/A   Clear
8:30 PM 71.6 °F - 68.0 °F 88% 29.92 in - WNW 8.1 mph - N/A   Clear
9:00 PM 71 °F - 68 °F 87% 29.93 in 19 mi West 6.9 mph - -   Partly Cloudy
9:00 PM 71.6 °F - 68.0 °F 88% 29.92 in - West 6.9 mph - N/A   Clear
9:30 PM 69.8 °F - 68.0 °F 94% 29.92 in - WNW 3.5 mph - N/A   Clear
10:00 PM 68 °F - 66 °F 90% 29.93 in - West 4.6 mph - -  
10:00 PM 68.0 °F - 66.2 °F 94% 29.92 in - West 4.6 mph - N/A   Clear
10:30 PM 66.2 °F - 62.6 °F 88% 29.92 in - SSW 8.1 mph - N/A   Clear
11:00 PM 66.2 °F - 59.0 °F 78% 29.89 in - SSW 5.8 mph - N/A   Clear
11:30 PM 64.4 °F - 57.2 °F 77% 29.89 in - West 4.6 mph - N/A   Clear